Weather Roundup
Issued by NWS Springfield, MO

Home | Current Version | Previous Version | Text Only | Print | Product List | Glossary On
Versions: 1 2 3 4 5 6 7 8 9 10 11 12 13 14 15 16 17 18 19 20 21 22 23 24 25 26 27 28 29 30 31 32 33 34 35 36 37 38 39 40 41 42 43 44 45 46 47 48 49 50
000
NZUS99 KSGF 262207
HRRSGF

HOURLY WEATHER
NATIONAL WEATHER SERVICE SPRINGFIELD MO
400 PM CST MON JAN 26 2015

......SGF CWA......

CITY           SKY/WX    TMP DP  RH WIND       PRES   REMARKS
SPRINGFIELD    SUNNY     57  33  40 W18G24    29.92F
JOPLIN         SUNNY     59  35  40 W12       29.96S
WEST PLAINS    SUNNY     53  30  41 W17G23    29.87F
ROLLA          SUNNY     51  34  52 W17       29.84R
OSAGE BEACH    SUNNY     55  34  44 W13G22    29.88R
BRANSON        SUNNY     59  32  36 W12       29.94F

......SURROUNDING SGF CWA......

CITY           SKY/WX    TMP DP  RH WIND       PRES   REMARKS
CHANUTE        SUNNY     67  36  31 NW14      29.96R
PARSONS        SUNNY     68  36  30 NW14      29.96R
COFFEYVILLE    SUNNY     68  36  30 NW13      29.96R
EMPORIA        SUNNY     65  35  33 NW17G24   29.96R
GROVE OK       SUNNY     61  34  36 SW8       29.98F
ROGERS AR      SUNNY     58  33  39 W12       29.97F
SILOAM SPRINGS SUNNY     59  34  38 W13       30.00S
HARRISON AR    SUNNY     59  32  36 W8G17     29.93R
NEAR YELLVILLE SUNNY     61  32  33 W10       29.91S

......KANSAS AND MISSOURI......

CITY           SKY/WX    TMP DP  RH WIND       PRES   REMARKS
KANSAS CTY INT MOSUNNY   60  34  37 NW13      29.91R
DOWNTOWN KC    SUNNY     62  33  33 NW16G25   29.90R
COLUMBIA       SUNNY     52  36  54 W21       29.85R
SEDALIA        SUNNY     55  37  50 W17G24    29.90R
ST JOSEPH      SUNNY     60  33  36 N21       29.93R
ST LOUIS       PTSUNNY   41  29  62 CALM      29.89R
SPIRIT OF STL  MOSUNNY   45  32  60 CALM      29.88R
KIRKSVILLE     SUNNY     52  36  54 NW15G23   29.85R
WICHITA        MOSUNNY   74  33  22 NW14      29.98S
TOPEKA         SUNNY     65  34  31 N12       29.93S
OLATHE         SUNNY     61  34  36 NW15      29.91S

......TENNESSEE......

CITY           SKY/WX    TMP DP  RH WIND       PRES   REMARKS
MEMPHIS        MOSUNNY   49  31  49 SW9       29.97F
NASHVILLE      CLOUDY    36  28  73 W6        29.97R WCI  31

......ARKANSAS.......

CITY           SKY/WX    TMP DP  RH WIND       PRES   REMARKS
FAYETTEVILLE   SUNNY     57  34  41 W13       29.99R
FT SMITH       SUNNY     62  34  35 W9        29.99F
LITTLE ROCK    SUNNY     61  27  27 SW9       29.97F

......OKLAHOMA.......

CITY           SKY/WX    TMP DP  RH WIND       PRES   REMARKS
TULSA          MOSUNNY   70  35  27 W10       29.96F
PONCA CITY     SUNNY     73  34  23 NW16G22   29.98S
MCALESTER      SUNNY     71  33  24 W15       30.01F
OKLAHOMA CITY  MOSUNNY   76  30  18 NW16      30.03S

......IOWA............

CITY           SKY/WX    TMP DP  RH WIND       PRES   REMARKS
DES MOINES     MOSUNNY   53  36  52 NW18G24   29.85R
QUAD CITIES    CLOUDY    31  27  85 SW6       29.82R WCI  25

......ILLINOIS........

CITY           SKY/WX    TMP DP  RH WIND       PRES   REMARKS
QUINCY         SUNNY     41  34  76 SW7       29.84R
CHICAGO        FLURRIES  26  20  77 S8        29.86S WCI  18




USA.gov is the U.S. government's official web portal to all federal, state and local government web resources and services.